Time,TemperatureF,DewpointF,PressureIn,WindDirection,WindDirectionDegrees,WindSpeedMPH,WindSpeedGustMPH,Humidity,HourlyPrecipIn,Conditions,Clouds,dailyrainin,SoftwareType,DateUTC
2013-02-27 00:00:00,36.4,34.8,29.66,WSW,245,0.0,12.0,94,0.00,,,0.00,Wunderground v.1.15,2013-02-27 05:00:00,
2013-02-27 00:05:00,36.2,34.9,29.66,WSW,248,0.0,12.0,95,0.00,,,0.00,Wunderground v.1.15,2013-02-27 05:05:00,
2013-02-27 00:10:00,36.1,34.8,29.67,WSW,246,1.0,12.0,95,0.00,,,0.00,Wunderground v.1.15,2013-02-27 05:10:00,
2013-02-27 00:15:00,36.1,34.8,29.67,WSW,245,2.0,12.0,95,0.00,,,0.00,Wunderground v.1.15,2013-02-27 05:15:00,
2013-02-27 00:20:00,36.1,35.1,29.67,West,273,1.0,12.0,96,0.00,,,0.00,Wunderground v.1.15,2013-02-27 05:20:00,
2013-02-27 00:25:00,36.1,35.1,29.67,West,270,1.0,12.0,96,0.00,,,0.00,Wunderground v.1.15,2013-02-27 05:25:00,
2013-02-27 00:30:00,36.1,35.1,29.67,West,267,1.0,1.0,96,0.00,,,0.00,Wunderground v.1.15,2013-02-27 05:30:00,
2013-02-27 00:35:00,36.1,35.1,29.67,West,270,1.0,12.0,96,0.00,,,0.00,Wunderground v.1.15,2013-02-27 05:35:00,
2013-02-27 00:40:00,36.0,35.0,29.68,West,270,1.0,12.0,96,0.00,,,0.00,Wunderground v.1.15,2013-02-27 05:40:00,
2013-02-27 00:45:00,36.0,35.0,29.68,West,264,0.0,12.0,96,0.00,,,0.00,Wunderground v.1.15,2013-02-27 05:45:00,
2013-02-27 00:50:00,35.7,34.7,29.68,NNW,345,0.0,12.0,96,0.00,,,0.00,Wunderground v.1.15,2013-02-27 05:50:00,
2013-02-27 00:55:00,35.4,34.4,29.67,SW,233,1.0,12.0,96,0.00,,,0.00,Wunderground v.1.15,2013-02-27 05:55:00,
2013-02-27 01:00:00,35.5,34.2,29.68,West,281,2.0,12.0,95,0.00,,,0.00,Wunderground v.1.15,2013-02-27 06:00:00,
2013-02-27 01:05:00,35.7,33.9,29.68,NW,308,1.0,12.0,93,0.00,,,0.00,Wunderground v.1.15,2013-02-27 06:05:00,
2013-02-27 01:10:00,35.9,33.8,29.68,WNW,284,1.0,12.0,92,0.00,,,0.00,Wunderground v.1.15,2013-02-27 06:10:00,
2013-02-27 01:15:00,36.4,33.7,29.68,West,263,1.0,12.0,90,0.00,,,0.00,Wunderground v.1.15,2013-02-27 06:15:00,
2013-02-27 01:20:00,36.6,33.9,29.68,NW,311,1.0,12.0,90,0.00,,,0.00,Wunderground v.1.15,2013-02-27 06:20:00,
2013-02-27 01:25:00,36.7,33.8,29.68,SSE,167,1.0,12.0,89,0.00,,,0.00,Wunderground v.1.15,2013-02-27 06:25:00,
2013-02-27 01:30:00,36.7,33.8,29.68,WSW,257,2.0,12.0,89,0.00,,,0.00,Wunderground v.1.15,2013-02-27 06:30:00,
2013-02-27 01:40:00,36.4,33.7,29.68,West,278,1.0,1.0,90,0.00,,,0.00,Wunderground v.1.15,2013-02-27 06:40:00,
2013-02-27 01:45:00,36.4,33.7,29.68,West,277,0.0,12.0,90,0.00,,,0.00,Wunderground v.1.15,2013-02-27 06:45:00,
2013-02-27 01:50:00,36.3,33.9,29.68,West,260,0.0,12.0,91,0.00,,,0.00,Wunderground v.1.15,2013-02-27 06:50:00,
2013-02-27 01:55:00,36.3,33.6,29.68,West,278,1.0,12.0,90,0.00,,,0.00,Wunderground v.1.15,2013-02-27 06:55:00,
2013-02-27 02:00:00,36.6,33.7,29.68,West,262,1.0,1.0,89,0.00,,,0.00,Wunderground v.1.15,2013-02-27 07:00:00,
2013-02-27 02:05:00,36.6,33.7,29.68,West,260,1.0,12.0,89,0.00,,,0.00,Wunderground v.1.15,2013-02-27 07:05:00,
2013-02-27 02:10:00,36.8,33.0,29.68,East,90,1.0,12.0,86,0.00,,,0.00,Wunderground v.1.15,2013-02-27 07:10:00,
2013-02-27 02:15:00,37.1,33.3,29.69,NW,304,1.0,12.0,86,0.00,,,0.00,Wunderground v.1.15,2013-02-27 07:15:00,
2013-02-27 02:20:00,37.2,33.4,29.69,East,85,1.0,12.0,86,0.00,,,0.00,Wunderground v.1.15,2013-02-27 07:20:00,
2013-02-27 02:25:00,37.0,33.5,29.68,North,9,1.0,12.0,87,0.00,,,0.00,Wunderground v.1.15,2013-02-27 07:25:00,
2013-02-27 02:30:00,36.8,33.0,29.68,NNW,345,1.0,12.0,86,0.00,,,0.00,Wunderground v.1.15,2013-02-27 07:30:00,
2013-02-27 02:35:00,36.8,33.3,29.68,WNW,290,1.0,12.0,87,0.00,,,0.00,Wunderground v.1.15,2013-02-27 07:35:00,
2013-02-27 02:45:00,36.5,33.3,29.68,West,259,2.0,12.0,88,0.00,,,0.00,Wunderground v.1.15,2013-02-27 07:45:00,
2013-02-27 02:55:00,36.3,33.4,29.68,WSW,254,1.0,12.0,89,0.00,,,0.00,Wunderground v.1.15,2013-02-27 07:55:00,
2013-02-27 03:00:00,36.1,33.5,29.69,West,277,1.0,1.0,90,0.00,,,0.00,Wunderground v.1.15,2013-02-27 08:00:00,
2013-02-27 03:05:00,36.0,33.4,29.68,SW,231,1.0,12.0,90,0.00,,,0.00,Wunderground v.1.15,2013-02-27 08:05:00,
2013-02-27 03:10:00,36.0,33.4,29.68,SW,231,0.0,12.0,90,0.00,,,0.00,Wunderground v.1.15,2013-02-27 08:10:00,
2013-02-27 03:20:00,35.7,33.3,29.69,West,275,0.0,12.0,91,0.00,,,0.00,Wunderground v.1.15,2013-02-27 08:20:00,
2013-02-27 03:25:00,35.6,33.2,29.68,WNW,291,0.0,12.0,91,0.00,,,0.00,Wunderground v.1.15,2013-02-27 08:25:00,
2013-02-27 03:30:00,35.3,32.9,29.69,SW,235,0.0,12.0,91,0.00,,,0.00,Wunderground v.1.15,2013-02-27 08:30:00,
2013-02-27 03:35:00,35.2,32.8,29.69,SW,236,0.0,12.0,91,0.00,,,0.00,Wunderground v.1.15,2013-02-27 08:35:00,
2013-02-27 03:45:00,35.1,32.5,29.69,WSW,253,0.0,12.0,90,0.00,,,0.00,Wunderground v.1.15,2013-02-27 08:45:00,
2013-02-27 03:55:00,35.1,32.5,29.69,West,267,2.0,12.0,90,0.00,,,0.00,Wunderground v.1.15,2013-02-27 08:55:00,
2013-02-27 04:05:00,34.9,32.0,29.69,SW,231,3.0,12.0,89,0.00,,,0.00,Wunderground v.1.15,2013-02-27 09:05:00,
2013-02-27 04:10:00,34.8,32.2,29.69,SW,233,3.0,12.0,90,0.00,,,0.00,Wunderground v.1.15,2013-02-27 09:10:00,
2013-02-27 04:20:00,34.6,31.7,29.70,West,267,2.0,2.0,89,0.00,,,0.00,Wunderground v.1.15,2013-02-27 09:20:00,
2013-02-27 04:25:00,34.5,31.3,29.70,WSW,253,2.0,12.0,88,0.00,,,0.00,Wunderground v.1.15,2013-02-27 09:25:00,
2013-02-27 04:30:00,34.4,31.2,29.70,WSW,246,2.0,12.0,88,0.00,,,0.00,Wunderground v.1.15,2013-02-27 09:30:00,
2013-02-27 04:40:00,34.1,31.2,29.70,West,263,2.0,12.0,89,0.00,,,0.00,Wunderground v.1.15,2013-02-27 09:40:00,
2013-02-27 04:50:00,33.9,30.4,29.70,West,262,3.0,3.0,87,0.00,,,0.00,Wunderground v.1.15,2013-02-27 09:50:00,
2013-02-27 04:55:00,33.7,30.5,29.70,West,266,2.0,12.0,88,0.00,,,0.00,Wunderground v.1.15,2013-02-27 09:55:00,
2013-02-27 05:05:00,33.2,30.3,29.70,West,276,1.0,12.0,89,0.00,,,0.00,Wunderground v.1.15,2013-02-27 10:05:00,
2013-02-27 05:10:00,33.1,30.2,29.70,West,269,1.0,1.0,89,0.00,,,0.00,Wunderground v.1.15,2013-02-27 10:10:00,
2013-02-27 05:15:00,32.9,30.0,29.71,West,271,0.0,12.0,89,0.00,,,0.00,Wunderground v.1.15,2013-02-27 10:15:00,
2013-02-27 05:20:00,32.8,30.2,29.71,West,260,0.0,12.0,90,0.00,,,0.00,Wunderground v.1.15,2013-02-27 10:20:00,
2013-02-27 05:25:00,32.8,30.2,29.71,West,270,0.0,12.0,90,0.00,,,0.00,Wunderground v.1.15,2013-02-27 10:25:00,
2013-02-27 05:30:00,32.7,30.1,29.72,WSW,250,0.0,12.0,90,0.00,,,0.00,Wunderground v.1.15,2013-02-27 10:30:00,
2013-02-27 05:35:00,32.7,30.1,29.72,WSW,240,0.0,12.0,90,0.00,,,0.00,Wunderground v.1.15,2013-02-27 10:35:00,
2013-02-27 05:40:00,32.7,30.1,29.72,West,271,0.0,12.0,90,0.00,,,0.00,Wunderground v.1.15,2013-02-27 10:40:00,
2013-02-27 05:45:00,32.7,30.1,29.73,West,260,0.0,12.0,90,0.00,,,0.00,Wunderground v.1.15,2013-02-27 10:45:00,
2013-02-27 05:55:00,32.6,30.0,29.73,West,271,0.0,12.0,90,0.00,,,0.00,Wunderground v.1.15,2013-02-27 10:55:00,
2013-02-27 06:00:00,32.5,29.9,29.72,West,267,0.0,12.0,90,0.00,,,0.00,Wunderground v.1.15,2013-02-27 11:00:00,
2013-02-27 06:05:00,32.5,29.9,29.72,West,264,0.0,12.0,90,0.00,,,0.00,Wunderground v.1.15,2013-02-27 11:05:00,
2013-02-27 06:10:00,32.4,29.8,29.72,West,269,0.0,12.0,90,0.00,,,0.00,Wunderground v.1.15,2013-02-27 11:10:00,
2013-02-27 06:15:00,32.3,29.7,29.72,WSW,240,0.0,12.0,90,0.00,,,0.00,Wunderground v.1.15,2013-02-27 11:15:00,
2013-02-27 06:20:00,32.2,29.6,29.72,WSW,250,0.0,12.0,90,0.00,,,0.00,Wunderground v.1.15,2013-02-27 11:20:00,
2013-02-27 06:25:00,32.1,29.5,29.73,WSW,250,0.0,12.0,90,0.00,,,0.00,Wunderground v.1.15,2013-02-27 11:25:00,
2013-02-27 06:30:00,32.1,29.5,29.74,West,262,0.0,12.0,90,0.00,,,0.00,Wunderground v.1.15,2013-02-27 11:30:00,
2013-02-27 06:35:00,32.0,29.4,29.74,West,262,0.0,12.0,90,0.00,,,0.00,Wunderground v.1.15,2013-02-27 11:35:00,
2013-02-27 06:40:00,32.0,29.7,29.74,West,262,0.0,12.0,91,0.00,,,0.00,Wunderground v.1.15,2013-02-27 11:40:00,
2013-02-27 06:45:00,31.8,29.5,29.73,West,278,0.0,12.0,91,0.00,,,0.00,Wunderground v.1.15,2013-02-27 11:45:00,
2013-02-27 06:50:00,31.8,29.5,29.73,West,277,0.0,12.0,91,0.00,,,0.00,Wunderground v.1.15,2013-02-27 11:50:00,
2013-02-27 06:55:00,31.8,29.5,29.73,West,278,0.0,12.0,91,0.00,,,0.00,Wunderground v.1.15,2013-02-27 11:55:00,
2013-02-27 07:00:00,31.8,29.5,29.73,West,278,0.0,12.0,91,0.00,,,0.00,Wunderground v.1.15,2013-02-27 12:00:00,
2013-02-27 07:05:00,31.8,29.7,29.73,SW,224,0.0,12.0,92,0.00,,,0.00,Wunderground v.1.15,2013-02-27 12:05:00,
2013-02-27 07:10:00,31.8,29.7,29.73,WSW,257,0.0,12.0,92,0.00,,,0.00,Wunderground v.1.15,2013-02-27 12:10:00,
2013-02-27 07:15:00,31.8,29.7,29.74,West,278,0.0,12.0,92,0.00,,,0.00,Wunderground v.1.15,2013-02-27 12:15:00,
2013-02-27 07:20:00,31.9,29.8,29.73,West,270,0.0,12.0,92,0.00,,,0.00,Wunderground v.1.15,2013-02-27 12:20:00,
2013-02-27 07:25:00,32.0,29.9,29.73,WSW,250,0.0,12.0,92,0.00,,,0.00,Wunderground v.1.15,2013-02-27 12:25:00,
2013-02-27 08:15:00,35.0,31.5,29.78,SW,228,0.0,0.0,87,0.00,,,0.00,Wunderground v.1.15,2013-02-27 13:15:00,
2013-02-27 08:25:00,36.6,31.6,29.78,SW,222,2.0,2.0,82,0.00,,,0.00,Wunderground v.1.15,2013-02-27 13:25:00,
2013-02-27 08:30:00,37.1,31.8,29.78,WSW,248,3.0,3.0,81,0.00,,,0.00,Wunderground v.1.15,2013-02-27 13:30:00,
2013-02-27 08:35:00,37.7,31.8,29.78,WSW,246,2.0,3.0,79,0.00,,,0.00,Wunderground v.1.15,2013-02-27 13:35:00,
2013-02-27 08:40:00,38.2,31.6,29.78,NW,312,2.0,3.0,77,0.00,,,0.00,Wunderground v.1.15,2013-02-27 13:40:00,
2013-02-27 08:45:00,38.6,32.0,29.78,SW,224,2.0,2.0,77,0.00,,,0.00,Wunderground v.1.15,2013-02-27 13:45:00,
2013-02-27 08:50:00,38.8,31.2,29.79,WSW,238,2.0,2.0,74,0.00,,,0.00,Wunderground v.1.15,2013-02-27 13:50:00,
2013-02-27 09:00:00,39.1,31.8,29.78,SW,231,3.0,3.0,75,0.00,,,0.00,Wunderground v.1.15,2013-02-27 14:00:00,
2013-02-27 09:05:00,39.0,31.4,29.78,SW,231,3.0,3.0,74,0.00,,,0.00,Wunderground v.1.15,2013-02-27 14:05:00,
2013-02-27 09:10:00,39.0,31.1,29.77,WNW,300,2.0,2.0,73,0.00,,,0.00,Wunderground v.1.15,2013-02-27 14:10:00,
2013-02-27 09:20:00,39.4,31.8,29.78,SW,221,3.0,3.0,74,0.00,,,0.00,Wunderground v.1.15,2013-02-27 14:20:00,
2013-02-27 09:25:00,39.8,32.2,29.78,SW,235,2.0,3.0,74,0.00,,,0.00,Wunderground v.1.15,2013-02-27 14:25:00,
2013-02-27 09:30:00,40.0,32.0,29.78,WSW,250,2.0,3.0,73,0.00,,,0.00,Wunderground v.1.15,2013-02-27 14:30:00,
2013-02-27 09:40:00,39.9,31.3,29.79,WSW,253,3.0,3.0,71,0.00,,,0.00,Wunderground v.1.15,2013-02-27 14:40:00,
2013-02-27 09:45:00,40.0,31.7,29.80,SW,229,3.0,3.0,72,0.00,,,0.00,Wunderground v.1.15,2013-02-27 14:45:00,
2013-02-27 09:55:00,40.4,32.4,29.80,WSW,246,3.0,4.0,73,0.00,,,0.00,Wunderground v.1.15,2013-02-27 14:55:00,
2013-02-27 10:00:00,40.3,32.0,29.80,SW,216,3.0,3.0,72,0.00,,,0.00,Wunderground v.1.15,2013-02-27 15:00:00,
2013-02-27 10:05:00,40.4,32.4,29.80,West,266,3.0,3.0,73,0.00,,,0.00,Wunderground v.1.15,2013-02-27 15:05:00,
2013-02-27 10:10:00,40.6,31.9,29.79,SW,222,4.0,5.0,71,0.00,,,0.00,Wunderground v.1.15,2013-02-27 15:10:00,
2013-02-27 10:15:00,40.9,32.6,29.79,West,262,4.0,5.0,72,0.00,,,0.00,Wunderground v.1.15,2013-02-27 15:15:00,
2013-02-27 10:25:00,41.6,32.5,29.79,SW,227,3.0,4.0,70,0.00,,,0.00,Wunderground v.1.15,2013-02-27 15:25:00,
2013-02-27 10:30:00,41.6,31.8,29.79,WSW,245,3.0,6.0,68,0.00,,,0.00,Wunderground v.1.15,2013-02-27 15:30:00,
2013-02-27 10:35:00,41.7,32.3,29.80,SW,232,3.0,6.0,69,0.00,,,0.00,Wunderground v.1.15,2013-02-27 15:35:00,
2013-02-27 10:40:00,42.2,32.4,29.80,SW,232,3.0,3.0,68,0.00,,,0.00,Wunderground v.1.15,2013-02-27 15:40:00,
2013-02-27 10:45:00,42.0,32.2,29.80,SW,235,3.0,3.0,68,0.00,,,0.00,Wunderground v.1.15,2013-02-27 15:45:00,
2013-02-27 10:50:00,42.4,32.6,29.80,SW,225,3.0,3.0,68,0.00,,,0.00,Wunderground v.1.15,2013-02-27 15:50:00,
2013-02-27 10:55:00,43.1,33.6,29.81,WSW,252,2.0,3.0,69,0.00,,,0.00,Wunderground v.1.15,2013-02-27 15:55:00,
2013-02-27 11:00:00,43.6,33.4,29.80,SW,217,2.0,2.0,67,0.00,,,0.00,Wunderground v.1.15,2013-02-27 16:00:00,
2013-02-27 11:05:00,43.8,32.8,29.81,SW,235,2.0,5.0,65,0.00,,,0.00,Wunderground v.1.15,2013-02-27 16:05:00,
2013-02-27 11:15:00,43.7,33.5,29.81,WSW,248,3.0,4.0,67,0.00,,,0.00,Wunderground v.1.15,2013-02-27 16:15:00,
2013-02-27 11:20:00,43.7,32.3,29.81,West,280,3.0,3.0,64,0.00,,,0.00,Wunderground v.1.15,2013-02-27 16:20:00,
2013-02-27 11:30:00,43.9,33.6,29.80,WSW,248,3.0,4.0,67,0.00,,,0.00,Wunderground v.1.15,2013-02-27 16:30:00,
2013-02-27 11:35:00,43.4,32.4,29.80,SSW,205,3.0,4.0,65,0.00,,,0.00,Wunderground v.1.15,2013-02-27 16:35:00,
2013-02-27 11:40:00,44.2,33.2,29.80,SSE,158,3.0,3.0,65,0.00,,,0.00,Wunderground v.1.15,2013-02-27 16:40:00,
2013-02-27 11:45:00,44.7,33.6,29.80,SW,235,2.0,3.0,65,0.00,,,0.00,Wunderground v.1.15,2013-02-27 16:45:00,
2013-02-27 11:50:00,44.5,32.7,29.80,WSW,239,2.0,3.0,63,0.00,,,0.00,Wunderground v.1.15,2013-02-27 16:50:00,
2013-02-27 12:00:00,44.0,31.8,29.80,WSW,246,3.0,3.0,62,0.00,,,0.00,Wunderground v.1.15,2013-02-27 17:00:00,
2013-02-27 12:05:00,44.2,34.3,29.81,SSW,208,3.0,3.0,68,0.00,,,0.00,Wunderground v.1.15,2013-02-27 17:05:00,
2013-02-27 12:10:00,44.9,33.5,29.80,West,274,2.0,2.0,64,0.00,,,0.00,Wunderground v.1.15,2013-02-27 17:10:00,
2013-02-27 12:15:00,45.9,34.8,29.80,NNW,329,1.0,2.0,65,0.00,,,0.00,Wunderground v.1.15,2013-02-27 17:15:00,
2013-02-27 12:20:00,46.4,34.1,29.80,SSW,211,1.0,2.0,62,0.00,,,0.00,Wunderground v.1.15,2013-02-27 17:20:00,
2013-02-27 12:25:00,46.0,33.7,29.80,WSW,242,2.0,2.0,62,0.00,,,0.00,Wunderground v.1.15,2013-02-27 17:25:00,
2013-02-27 12:30:00,46.5,33.4,29.79,NW,314,1.0,1.0,60,0.00,,,0.00,Wunderground v.1.15,2013-02-27 17:30:00,
2013-02-27 12:35:00,46.3,32.3,29.79,South,174,1.0,1.0,58,0.00,,,0.00,Wunderground v.1.15,2013-02-27 17:35:00,
2013-02-27 12:40:00,46.6,33.9,29.78,SE,124,1.0,3.0,61,0.00,,,0.00,Wunderground v.1.15,2013-02-27 17:40:00,
2013-02-27 12:45:00,47.0,33.0,29.78,SSW,193,1.0,3.0,58,0.00,,,0.00,Wunderground v.1.15,2013-02-27 17:45:00,
2013-02-27 12:50:00,46.5,32.5,29.78,WSW,252,2.0,2.0,58,0.00,,,0.00,Wunderground v.1.15,2013-02-27 17:50:00,
2013-02-27 12:55:00,46.6,33.9,29.78,NE,51,2.0,2.0,61,0.00,,,0.00,Wunderground v.1.15,2013-02-27 17:55:00,
2013-02-27 13:00:00,47.3,34.9,29.78,North,8,2.0,2.0,62,0.00,,,0.00,Wunderground v.1.15,2013-02-27 18:00:00,
2013-02-27 13:05:00,48.4,35.1,29.77,West,262,1.0,2.0,60,0.00,,,0.00,Wunderground v.1.15,2013-02-27 18:05:00,
2013-02-27 13:10:00,48.9,33.9,29.77,WSW,253,1.0,1.0,56,0.00,,,0.00,Wunderground v.1.15,2013-02-27 18:10:00,
2013-02-27 13:15:00,49.0,34.9,29.77,West,276,1.0,1.0,58,0.00,,,0.00,Wunderground v.1.15,2013-02-27 18:15:00,
2013-02-27 13:20:00,49.3,34.7,29.77,NNE,22,1.0,1.0,57,0.00,,,0.00,Wunderground v.1.15,2013-02-27 18:20:00,
2013-02-27 13:25:00,49.5,34.4,29.77,East,97,1.0,6.0,56,0.00,,,0.00,Wunderground v.1.15,2013-02-27 18:25:00,
2013-02-27 13:30:00,48.6,34.5,29.77,South,188,3.0,3.0,58,0.00,,,0.00,Wunderground v.1.15,2013-02-27 18:30:00,
2013-02-27 13:35:00,48.9,33.9,29.77,East,85,4.0,4.0,56,0.00,,,0.00,Wunderground v.1.15,2013-02-27 18:35:00,
2013-02-27 13:40:00,49.3,34.3,29.76,SW,216,2.0,2.0,56,0.00,,,0.00,Wunderground v.1.15,2013-02-27 18:40:00,
2013-02-27 13:45:00,49.4,33.9,29.76,SSE,159,2.0,3.0,55,0.00,,,0.00,Wunderground v.1.15,2013-02-27 18:45:00,
2013-02-27 13:50:00,49.4,34.3,29.75,SE,133,2.0,2.0,56,0.00,,,0.00,Wunderground v.1.15,2013-02-27 18:50:00,
2013-02-27 13:55:00,50.1,35.4,29.75,WNW,284,2.0,2.0,57,0.00,,,0.00,Wunderground v.1.15,2013-02-27 18:55:00,
2013-02-27 14:00:00,50.8,35.7,29.75,NE,34,2.0,4.0,56,0.00,,,0.00,Wunderground v.1.15,2013-02-27 19:00:00,
2013-02-27 14:05:00,50.8,37.4,29.75,West,262,2.0,4.0,60,0.00,,,0.00,Wunderground v.1.15,2013-02-27 19:05:00,
2013-02-27 14:10:00,51.7,36.5,29.75,SSW,201,2.0,2.0,56,0.00,,,0.00,Wunderground v.1.15,2013-02-27 19:10:00,
2013-02-27 14:15:00,52.2,36.0,29.75,East,96,1.0,7.0,54,0.00,,,0.00,Wunderground v.1.15,2013-02-27 19:15:00,
2013-02-27 14:20:00,51.6,35.0,29.75,WSW,243,3.0,3.0,53,0.00,,,0.00,Wunderground v.1.15,2013-02-27 19:20:00,
2013-02-27 14:25:00,51.3,35.2,29.75,SW,224,4.0,4.0,54,0.00,,,0.00,Wunderground v.1.15,2013-02-27 19:25:00,
2013-02-27 14:30:00,51.1,35.0,29.75,East,82,3.0,3.0,54,0.00,,,0.00,Wunderground v.1.15,2013-02-27 19:30:00,
2013-02-27 14:40:00,51.3,36.1,29.74,WSW,246,3.0,4.0,56,0.00,,,0.00,Wunderground v.1.15,2013-02-27 19:40:00,
2013-02-27 14:50:00,51.8,37.0,29.73,SSE,163,2.0,2.0,57,0.00,,,0.00,Wunderground v.1.15,2013-02-27 19:50:00,
2013-02-27 14:55:00,51.8,35.7,29.74,ESE,110,3.0,4.0,54,0.00,,,0.00,Wunderground v.1.15,2013-02-27 19:55:00,
2013-02-27 15:00:00,52.3,36.6,29.74,SE,136,4.0,4.0,55,0.00,,,0.00,Wunderground v.1.15,2013-02-27 20:00:00,
2013-02-27 15:05:00,52.6,38.2,29.74,SSE,152,2.0,4.0,58,0.00,,,0.00,Wunderground v.1.15,2013-02-27 20:05:00,
2013-02-27 15:10:00,52.5,37.2,29.74,East,100,2.0,5.0,56,0.00,,,0.00,Wunderground v.1.15,2013-02-27 20:10:00,
2013-02-27 15:20:00,51.7,36.5,29.74,SSE,157,4.0,4.0,56,0.00,,,0.00,Wunderground v.1.15,2013-02-27 20:20:00,
2013-02-27 15:25:00,51.6,35.0,29.74,West,260,4.0,4.0,53,0.00,,,0.00,Wunderground v.1.15,2013-02-27 20:25:00,
2013-02-27 15:30:00,52.6,34.5,29.73,South,183,3.0,4.0,50,0.00,,,0.00,Wunderground v.1.15,2013-02-27 20:30:00,
2013-02-27 15:35:00,52.7,33.5,29.73,SSE,148,3.0,10.0,48,0.00,,,0.00,Wunderground v.1.15,2013-02-27 20:35:00,
2013-02-27 15:40:00,52.9,30.4,29.73,NNE,25,4.0,4.0,42,0.00,,,0.00,Wunderground v.1.15,2013-02-27 20:40:00,
2013-02-27 15:45:00,53.1,30.0,29.73,ENE,70,3.0,4.0,41,0.00,,,0.00,Wunderground v.1.15,2013-02-27 20:45:00,
2013-02-27 15:50:00,53.3,30.2,29.73,WNW,284,3.0,3.0,41,0.00,,,0.00,Wunderground v.1.15,2013-02-27 20:50:00,
2013-02-27 15:55:00,53.2,29.5,29.73,WSW,242,3.0,4.0,40,0.00,,,0.00,Wunderground v.1.15,2013-02-27 20:55:00,
2013-02-27 16:00:00,53.2,28.9,29.73,West,280,3.0,3.0,39,0.00,,,0.00,Wunderground v.1.15,2013-02-27 21:00:00,
2013-02-27 16:05:00,53.2,30.1,29.72,West,266,2.0,3.0,41,0.00,,,0.00,Wunderground v.1.15,2013-02-27 21:05:00,
2013-02-27 16:10:00,53.6,32.2,29.72,WNW,297,1.0,3.0,44,0.00,,,0.00,Wunderground v.1.15,2013-02-27 21:10:00,
2013-02-27 16:15:00,53.3,31.9,29.73,WSW,239,1.0,5.0,44,0.00,,,0.00,Wunderground v.1.15,2013-02-27 21:15:00,
2013-02-27 16:20:00,53.0,30.5,29.73,ESE,113,2.0,2.0,42,0.00,,,0.00,Wunderground v.1.15,2013-02-27 21:20:00,
2013-02-27 16:25:00,53.0,30.5,29.72,NNE,17,1.0,2.0,42,0.00,,,0.00,Wunderground v.1.15,2013-02-27 21:25:00,
2013-02-27 16:30:00,53.0,30.5,29.72,SW,218,1.0,1.0,42,0.00,,,0.00,Wunderground v.1.15,2013-02-27 21:30:00,
2013-02-27 16:35:00,53.0,31.6,29.73,SW,228,1.0,1.0,44,0.00,,,0.00,Wunderground v.1.15,2013-02-27 21:35:00,
2013-02-27 16:40:00,52.7,30.2,29.72,SE,124,1.0,1.0,42,0.00,,,0.00,Wunderground v.1.15,2013-02-27 21:40:00,
2013-02-27 16:45:00,52.4,29.4,29.72,SSW,197,1.0,1.0,41,0.00,,,0.00,Wunderground v.1.15,2013-02-27 21:45:00,
2013-02-27 16:50:00,52.2,29.8,29.72,SSW,193,1.0,1.0,42,0.00,,,0.00,Wunderground v.1.15,2013-02-27 21:50:00,
2013-02-27 16:55:00,51.9,30.1,29.72,SW,224,1.0,1.0,43,0.00,,,0.00,Wunderground v.1.15,2013-02-27 21:55:00,
2013-02-27 17:00:00,51.8,30.0,29.72,WSW,246,1.0,1.0,43,0.00,,,0.00,Wunderground v.1.15,2013-02-27 22:00:00,
2013-02-27 17:05:00,51.5,30.8,29.72,NW,312,1.0,1.0,45,0.00,,,0.00,Wunderground v.1.15,2013-02-27 22:05:00,
2013-02-27 17:10:00,51.2,31.1,29.72,East,89,2.0,2.0,46,0.00,,,0.00,Wunderground v.1.15,2013-02-27 22:10:00,
2013-02-27 17:15:00,50.9,30.3,29.72,South,187,1.0,2.0,45,0.00,,,0.00,Wunderground v.1.15,2013-02-27 22:15:00,
2013-02-27 17:20:00,50.5,30.5,29.72,West,267,2.0,2.0,46,0.00,,,0.00,Wunderground v.1.15,2013-02-27 22:20:00,
2013-02-27 17:25:00,50.2,29.7,29.72,NNW,328,2.0,2.0,45,0.00,,,0.00,Wunderground v.1.15,2013-02-27 22:25:00,
2013-02-27 17:30:00,49.8,31.9,29.73,NNE,18,2.0,2.0,50,0.00,,,0.00,Wunderground v.1.15,2013-02-27 22:30:00,
2013-02-27 17:35:00,49.4,31.0,29.73,WNW,288,1.0,2.0,49,0.00,,,0.00,Wunderground v.1.15,2013-02-27 22:35:00,
2013-02-27 17:40:00,49.3,30.4,29.73,NW,319,1.0,2.0,48,0.00,,,0.00,Wunderground v.1.15,2013-02-27 22:40:00,
2013-02-27 17:45:00,49.0,30.7,29.73,NW,314,1.0,2.0,49,0.00,,,0.00,Wunderground v.1.15,2013-02-27 22:45:00,
2013-02-27 17:50:00,48.7,30.9,29.73,East,92,1.0,3.0,50,0.00,,,0.00,Wunderground v.1.15,2013-02-27 22:50:00,
2013-02-27 17:55:00,48.3,31.0,29.73,WNW,284,1.0,3.0,51,0.00,,,0.00,Wunderground v.1.15,2013-02-27 22:55:00,
2013-02-27 18:00:00,48.0,29.7,29.73,West,270,1.0,1.0,49,0.00,,,0.00,Wunderground v.1.15,2013-02-27 23:00:00,
2013-02-27 18:05:00,47.8,30.5,29.73,NNW,336,1.0,1.0,51,0.00,,,0.00,Wunderground v.1.15,2013-02-27 23:05:00,
2013-02-27 18:10:00,47.5,30.3,29.73,North,350,1.0,1.0,51,0.00,,,0.00,Wunderground v.1.15,2013-02-27 23:10:00,
2013-02-27 18:15:00,47.2,30.0,29.73,NNW,329,1.0,1.0,51,0.00,,,0.00,Wunderground v.1.15,2013-02-27 23:15:00,
2013-02-27 18:20:00,46.9,30.6,29.74,NE,51,1.0,3.0,53,0.00,,,0.00,Wunderground v.1.15,2013-02-27 23:20:00,
2013-02-27 18:25:00,46.7,30.5,29.73,NW,311,1.0,3.0,53,0.00,,,0.00,Wunderground v.1.15,2013-02-27 23:25:00,
2013-02-27 18:30:00,46.2,30.5,29.74,NNW,336,1.0,1.0,54,0.00,,,0.00,Wunderground v.1.15,2013-02-27 23:30:00,
2013-02-27 18:35:00,46.0,30.3,29.74,ENE,72,1.0,2.0,54,0.00,,,0.00,Wunderground v.1.15,2013-02-27 23:35:00,
2013-02-27 18:40:00,45.8,30.1,29.74,NW,305,1.0,1.0,54,0.00,,,0.00,Wunderground v.1.15,2013-02-27 23:40:00,
2013-02-27 18:45:00,45.6,30.8,29.74,NW,316,1.0,1.0,56,0.00,,,0.00,Wunderground v.1.15,2013-02-27 23:45:00,
2013-02-27 18:50:00,45.2,31.3,29.75,WNW,284,1.0,5.0,58,0.00,,,0.00,Wunderground v.1.15,2013-02-27 23:50:00,
2013-02-27 18:55:00,45.0,31.9,29.75,WSW,243,2.0,5.0,60,0.00,,,0.00,Wunderground v.1.15,2013-02-27 23:55:00,
2013-02-27 19:05:00,43.7,32.7,29.75,NNW,337,1.0,2.0,65,0.00,,,0.00,Wunderground v.1.15,2013-02-28 00:05:00,
2013-02-27 19:10:00,43.1,32.5,29.75,West,279,1.0,2.0,66,0.00,,,0.00,Wunderground v.1.15,2013-02-28 00:10:00,
2013-02-27 19:20:00,42.2,32.4,29.75,West,274,1.0,1.0,68,0.00,,,0.00,Wunderground v.1.15,2013-02-28 00:20:00,
2013-02-27 19:25:00,41.8,32.0,29.75,West,275,1.0,1.0,68,0.00,,,0.00,Wunderground v.1.15,2013-02-28 00:25:00,
2013-02-27 19:30:00,41.5,32.1,29.75,WNW,284,1.0,1.0,69,0.00,,,0.00,Wunderground v.1.15,2013-02-28 00:30:00,
2013-02-27 19:35:00,41.2,31.8,29.74,WNW,283,1.0,1.0,69,0.00,,,0.00,Wunderground v.1.15,2013-02-28 00:35:00,
2013-02-27 19:40:00,41.0,31.6,29.74,WNW,283,1.0,1.0,69,0.00,,,0.00,Wunderground v.1.15,2013-02-28 00:40:00,
2013-02-27 19:45:00,40.8,31.8,29.74,WNW,283,1.0,1.0,70,0.00,,,0.00,Wunderground v.1.15,2013-02-28 00:45:00,
2013-02-27 19:50:00,40.7,31.7,29.75,WNW,282,1.0,1.0,70,0.00,,,0.00,Wunderground v.1.15,2013-02-28 00:50:00,
2013-02-27 19:55:00,40.7,32.0,29.75,WNW,282,1.0,1.0,71,0.00,,,0.00,Wunderground v.1.15,2013-02-28 00:55:00,
2013-02-27 20:00:00,40.7,32.0,29.75,WNW,282,1.0,1.0,71,0.00,,,0.00,Wunderground v.1.15,2013-02-28 01:00:00,
2013-02-27 20:05:00,40.6,31.6,29.75,WNW,285,1.0,1.0,70,0.00,,,0.00,Wunderground v.1.15,2013-02-28 01:05:00,
2013-02-27 20:10:00,40.4,31.7,29.75,WNW,285,0.0,0.0,71,0.00,,,0.00,Wunderground v.1.15,2013-02-28 01:10:00,
2013-02-27 20:20:00,40.3,31.3,29.75,NNW,328,0.0,0.0,70,0.00,,,0.00,Wunderground v.1.15,2013-02-28 01:20:00,
2013-02-27 20:25:00,40.5,31.1,29.75,WNW,288,0.0,1.0,69,0.00,,,0.00,Wunderground v.1.15,2013-02-28 01:25:00,
2013-02-27 20:30:00,40.4,31.4,29.75,WNW,290,1.0,1.0,70,0.00,,,0.00,Wunderground v.1.15,2013-02-28 01:30:00,
2013-02-27 20:35:00,40.4,31.7,29.75,SW,228,1.0,2.0,71,0.00,,,0.00,Wunderground v.1.15,2013-02-28 01:35:00,
2013-02-27 20:40:00,40.6,31.9,29.75,WSW,258,2.0,2.0,71,0.00,,,0.00,Wunderground v.1.15,2013-02-28 01:40:00,
2013-02-27 20:50:00,40.6,31.9,29.76,SW,219,1.0,1.0,71,0.00,,,0.00,Wunderground v.1.15,2013-02-28 01:50:00,
2013-02-27 21:00:00,40.1,32.1,29.77,SW,217,2.0,2.0,73,0.00,,,0.00,Wunderground v.1.15,2013-02-28 02:00:00,
2013-02-27 21:05:00,39.6,33.0,29.77,SSW,200,2.0,2.0,77,0.00,,,0.00,Wunderground v.1.15,2013-02-28 02:05:00,
2013-02-27 21:10:00,39.1,33.1,29.77,SW,231,2.0,2.0,79,0.00,,,0.00,Wunderground v.1.15,2013-02-28 02:10:00,
2013-02-27 21:15:00,38.8,33.5,29.77,SW,219,2.0,2.0,81,0.00,,,0.00,Wunderground v.1.15,2013-02-28 02:15:00,
2013-02-27 21:20:00,38.5,33.8,29.77,WSW,247,2.0,2.0,83,0.00,,,0.00,Wunderground v.1.15,2013-02-28 02:20:00,
2013-02-27 21:25:00,38.1,33.4,29.77,SW,226,2.0,2.0,83,0.00,,,0.00,Wunderground v.1.15,2013-02-28 02:25:00,
2013-02-27 21:30:00,37.9,33.5,29.77,West,275,1.0,2.0,84,0.00,,,0.00,Wunderground v.1.15,2013-02-28 02:30:00,
2013-02-27 21:35:00,37.7,33.3,29.78,West,260,2.0,2.0,84,0.00,,,0.00,Wunderground v.1.15,2013-02-28 02:35:00,
2013-02-27 21:40:00,37.5,33.4,29.77,WSW,243,2.0,2.0,85,0.00,,,0.00,Wunderground v.1.15,2013-02-28 02:40:00,
2013-02-27 21:45:00,37.3,33.5,29.77,WSW,250,1.0,2.0,86,0.00,,,0.00,Wunderground v.1.15,2013-02-28 02:45:00,
2013-02-27 21:55:00,36.9,33.4,29.77,West,267,2.0,2.0,87,0.00,,,0.00,Wunderground v.1.15,2013-02-28 02:55:00,
2013-02-27 22:05:00,36.7,33.2,29.77,WSW,246,1.0,2.0,87,0.00,,,0.00,Wunderground v.1.15,2013-02-28 03:05:00,
2013-02-27 22:10:00,36.6,33.1,29.77,South,186,1.0,1.0,87,0.00,,,0.00,Wunderground v.1.15,2013-02-28 03:10:00,
2013-02-27 22:15:00,36.5,33.3,29.77,WSW,249,1.0,1.0,88,0.00,,,0.00,Wunderground v.1.15,2013-02-28 03:15:00,
2013-02-27 22:20:00,36.4,33.2,29.77,West,259,1.0,1.0,88,0.00,,,0.00,Wunderground v.1.15,2013-02-28 03:20:00,
2013-02-27 22:30:00,36.1,33.2,29.77,WSW,239,2.0,3.0,89,0.00,,,0.00,Wunderground v.1.15,2013-02-28 03:30:00,
2013-02-27 22:35:00,36.0,33.1,29.77,SW,236,2.0,3.0,89,0.00,,,0.00,Wunderground v.1.15,2013-02-28 03:35:00,
2013-02-27 22:40:00,35.9,33.3,29.77,West,266,1.0,1.0,90,0.00,,,0.00,Wunderground v.1.15,2013-02-28 03:40:00,
2013-02-27 22:45:00,35.8,33.2,29.77,WSW,256,0.0,1.0,90,0.00,,,0.00,Wunderground v.1.15,2013-02-28 03:45:00,
2013-02-27 22:50:00,35.6,33.0,29.77,West,264,0.0,0.0,90,0.00,,,0.00,Wunderground v.1.15,2013-02-28 03:50:00,
2013-02-27 22:55:00,35.6,33.0,29.77,WSW,253,0.0,0.0,90,0.00,,,0.00,Wunderground v.1.15,2013-02-28 03:55:00,
2013-02-27 23:05:00,35.3,32.9,29.77,WSW,246,1.0,1.0,91,0.00,,,0.00,Wunderground v.1.15,2013-02-28 04:05:00,
2013-02-27 23:10:00,35.2,32.8,29.77,WSW,246,1.0,1.0,91,0.00,,,0.00,Wunderground v.1.15,2013-02-28 04:10:00,
2013-02-27 23:15:00,35.2,32.8,29.76,WSW,246,0.0,1.0,91,0.00,,,0.00,Wunderground v.1.15,2013-02-28 04:15:00,
2013-02-27 23:25:00,35.2,32.8,29.77,WSW,248,0.0,0.0,91,0.00,,,0.00,Wunderground v.1.15,2013-02-28 04:25:00,
2013-02-27 23:30:00,35.2,32.8,29.76,West,269,0.0,0.0,91,0.00,,,0.00,Wunderground v.1.15,2013-02-28 04:30:00,
2013-02-27 23:40:00,35.1,32.7,29.76,West,269,0.0,0.0,91,0.00,,,0.00,Wunderground v.1.15,2013-02-28 04:40:00,
2013-02-27 23:45:00,35.0,32.6,29.75,ESE,117,0.0,0.0,91,0.00,,,0.00,Wunderground v.1.15,2013-02-28 04:45:00,
2013-02-27 23:50:00,35.0,32.6,29.76,SW,233,0.0,0.0,91,0.00,,,0.00,Wunderground v.1.15,2013-02-28 04:50:00,
2013-02-27 23:55:00,35.0,32.6,29.75,WSW,248,0.0,0.0,91,0.00,,,0.00,Wunderground v.1.15,2013-02-28 04:55:00,